When you browse on this site, cookies collect data to enhance your experience and personalize the content and advertising you see.
Visit our Privacy Policy to learn more. By continuing to use the site, you agree to this use of cookies and data.
  • In Hungary
  • List of Countries
  • For 7 days
  • Water Temperature
  • Satellite Maps
  • Weather Map
  • News
  • Weather Widgets
  • user-avatar
    Login

    Hourly Weather South Shields

    Today, 17 December, Monday

    Time Temperature Precipitation Wind Pressure Humidity
    00:00 +4°C° 0.3 mm 3 mps 752 mmHg 94%
    01:00 +3°C° 0.3 mm 3 mps 752 mmHg 94%
    02:00 +3°C° 0.3 mm 3 mps 752 mmHg 93%
    03:00 +4°C° 0.3 mm 2 mps 753 mmHg 93%
    04:00 +3°C° 0 mm 3 mps 753 mmHg 93%
    05:00 +3°C° 0 mm 3 mps 754 mmHg 92%
    06:00 +3°C° 0 mm 3 mps 754 mmHg 91%
    07:00 +3°C° 0 mm 3 mps 755 mmHg 91%
    08:00 +3°C° 0 mm 3 mps 756 mmHg 91%
    09:00 +3°C° 0 mm 3 mps 756 mmHg 90%
    10:00 +4°C° 0 mm 3 mps 757 mmHg 89%
    11:00 +4°C° 0 mm 3 mps 757 mmHg 87%
    12:00 +5°C° 0 mm 3 mps 757 mmHg 86%
    13:00 +5°C° 0 mm 3 mps 757 mmHg 87%
    14:00 +5°C° 0 mm 3 mps 757 mmHg 87%
    15:00 +5°C° 0 mm 4 mps 757 mmHg 88%
    16:00 +5°C° 0 mm 4 mps 757 mmHg 89%
    17:00 +5°C° 0 mm 5 mps 757 mmHg 89%
    18:00 +4°C° 0 mm 6 mps 757 mmHg 89%
    19:00 +4°C° 0.1 mm 6 mps 757 mmHg 89%
    20:00 +5°C° 0.1 mm 7 mps 757 mmHg 90%
    21:00 +5°C° 0.1 mm 7 mps 757 mmHg 90%
    22:00 +5°C° 0 mm 7 mps 756 mmHg 90%
    23:00 +6°C° 0 mm 7 mps 756 mmHg 90%

    Tomorrow, 18 December, Tuesday

    Time Temperature Precipitation Wind Pressure Humidity
    00:00 +6°C° 0 mm 8 mps 756 mmHg 90%
    01:00 +6°C° 0 mm 8 mps 756 mmHg 90%
    02:00 +6°C° 0 mm 8 mps 755 mmHg 89%
    03:00 +6°C° 0 mm 8 mps 754 mmHg 89%
    04:00 +7°C° 0 mm 8 mps 754 mmHg 89%
    05:00 +7°C° 0 mm 9 mps 753 mmHg 88%
    06:00 +7°C° 0 mm 9 mps 753 mmHg 88%
    07:00 +7°C° 0 mm 10 mps 752 mmHg 87%
    08:00 +7°C° 0 mm 10 mps 752 mmHg 86%
    09:00 +8°C° 0 mm 11 mps 751 mmHg 85%
    10:00 +7°C° 0.1 mm 11 mps 750 mmHg 84%
    11:00 +7°C° 0.1 mm 11 mps 750 mmHg 83%
    12:00 +7°C° 0.1 mm 11 mps 749 mmHg 82%
    13:00 +7°C° 0.7 mm 11 mps 749 mmHg 81%
    14:00 +7°C° 0.7 mm 12 mps 748 mmHg 81%
    15:00 +5°C° 0.7 mm 12 mps 747 mmHg 80%
    16:00 +6°C° 0.8 mm 11 mps 747 mmHg 81%
    17:00 +6°C° 0.8 mm 11 mps 746 mmHg 82%
    18:00 +6°C° 0.8 mm 11 mps 746 mmHg 83%
    19:00 +6°C° 1 mm 10 mps 746 mmHg 85%
    20:00 +5°C° 1 mm 8 mps 746 mmHg 88%
    21:00 +5°C° 1 mm 7 mps 746 mmHg 90%
    22:00 +5°C° 0.6 mm 6 mps 746 mmHg 90%
    23:00 +6°C° 0.6 mm 4 mps 746 mmHg 91%

    Day after tomorrow, 19 December, Wednesday

    Time Temperature Precipitation Wind Pressure Humidity
    00:00 +7°C° 0.6 mm 3 mps 746 mmHg 92%
    01:00 +5°C° 0.1 mm 3 mps 746 mmHg 91%
    02:00 +5°C° 0.1 mm 3 mps 746 mmHg 90%
    03:00 +5°C° 0.1 mm 4 mps 747 mmHg 89%
    04:00 +5°C° 0 mm 4 mps 747 mmHg 89%
    05:00 +5°C° 0 mm 4 mps 747 mmHg 90%
    06:00 +5°C° 0 mm 4 mps 748 mmHg 90%
    07:00 +4°C° 0 mm 4 mps 748 mmHg 90%
    08:00 +4°C° 0 mm 4 mps 749 mmHg 89%
    09:00 +4°C° 0 mm 3 mps 749 mmHg 89%
    10:00 +4°C° 0 mm 4 mps 749 mmHg 86%
    11:00 +5°C° 0 mm 4 mps 749 mmHg 83%
    12:00 +6°C° 0 mm 4 mps 749 mmHg 79%
    13:00 +6°C° 0 mm 4 mps 749 mmHg 81%
    14:00 +5°C° 0 mm 4 mps 749 mmHg 82%
    15:00 +5°C° 0 mm 5 mps 749 mmHg 83%
    16:00 +5°C° 0 mm 5 mps 749 mmHg 84%
    17:00 +3°C° 0 mm 5 mps 749 mmHg 86%
    18:00 +3°C° 0 mm 5 mps 749 mmHg 87%
    19:00 +3°C° 0 mm 5 mps 749 mmHg 87%
    20:00 +3°C° 0 mm 5 mps 749 mmHg 87%
    21:00 +3°C° 0 mm 5 mps 749 mmHg 87%
    22:00 +2°C° 0 mm 5 mps 749 mmHg 88%
    23:00 +2°C° 0 mm 5 mps 749 mmHg 88%

    20 December, Thursday

    Time Temperature Precipitation Wind Pressure Humidity
    00:00 +2°C° 0 mm 5 mps 749 mmHg 89%
    01:00 +2°C° 0 mm 5 mps 749 mmHg 89%
    02:00 +2°C° 0 mm 5 mps 748 mmHg 90%
    03:00 +2°C° 0 mm 5 mps 748 mmHg 91%
    04:00 +2°C° 0 mm 5 mps 748 mmHg 90%
    05:00 +2°C° 0 mm 5 mps 748 mmHg 90%
    06:00 +2°C° 0 mm 6 mps 748 mmHg 90%
    07:00 +3°C° 0.1 mm 6 mps 748 mmHg 90%
    08:00 +3°C° 0.1 mm 6 mps 748 mmHg 90%
    09:00 +3°C° 0.1 mm 6 mps 748 mmHg 90%
    10:00 +4°C° 0.1 mm 6 mps 748 mmHg 88%
    11:00 +4°C° 0.1 mm 6 mps 749 mmHg 86%
    12:00 +5°C° 0.1 mm 6 mps 749 mmHg 84%
    13:00 +6°C° 0.1 mm 5 mps 749 mmHg 84%
    14:00 +6°C° 0.1 mm 5 mps 749 mmHg 84%
    15:00 +6°C° 0.1 mm 5 mps 749 mmHg 84%
    16:00 +5°C° 0.1 mm 5 mps 750 mmHg 85%
    17:00 +5°C° 0.1 mm 5 mps 750 mmHg 86%
    18:00 +5°C° 0.1 mm 5 mps 750 mmHg 87%
    19:00 +3°C° 0 mm 5 mps 751 mmHg 87%
    20:00 +3°C° 0 mm 5 mps 751 mmHg 88%
    21:00 +3°C° 0 mm 5 mps 752 mmHg 88%
    22:00 +3°C° 0 mm 5 mps 752 mmHg 88%
    23:00 +3°C° 0 mm 5 mps 752 mmHg 88%

    21 December, Friday

    Time Temperature Precipitation Wind Pressure Humidity
    00:00 +3°C° 0 mm 4 mps 753 mmHg 88%
    01:00 +3°C° 0 mm 4 mps 752 mmHg 89%
    02:00 +3°C° 0 mm 4 mps 752 mmHg 90%
    03:00 +3°C° 0 mm 3 mps 752 mmHg 90%
    04:00 +3°C° 0 mm 3 mps 752 mmHg 90%
    05:00 +3°C° 0 mm 3 mps 752 mmHg 91%
    06:00 +3°C° 0 mm 3 mps 752 mmHg 91%
    07:00 +3°C° 0.1 mm 3 mps 752 mmHg 91%
    08:00 +3°C° 0.1 mm 4 mps 752 mmHg 91%
    09:00 +4°C° 0.1 mm 4 mps 751 mmHg 91%
    10:00 +3°C° 0.8 mm 5 mps 751 mmHg 91%
    11:00 +3°C° 0.8 mm 5 mps 751 mmHg 91%
    12:00 +3°C° 0.8 mm 5 mps 750 mmHg 91%
    13:00 +3°C° 0.4 mm 5 mps 750 mmHg 91%
    14:00 +5°C° 0.4 mm 5 mps 750 mmHg 91%
    15:00 +5°C° 0.4 mm 5 mps 750 mmHg 91%
    16:00 +5°C° 0 mm 5 mps 750 mmHg 90%
    17:00 +5°C° 0 mm 4 mps 751 mmHg 90%
    18:00 +5°C° 0 mm 4 mps 751 mmHg 90%
    19:00 +5°C° 0.3 mm 4 mps 751 mmHg 90%
    20:00 +5°C° 0.3 mm 5 mps 751 mmHg 90%
    21:00 +6°C° 0.3 mm 5 mps 751 mmHg 90%
    22:00 +5°C° 0.2 mm 6 mps 751 mmHg 89%
    23:00 +7°C° 0.2 mm 6 mps 751 mmHg 89%

    22 December, Saturday

    Time Temperature Precipitation Wind Pressure Humidity
    00:00 +6°C° 0.2 mm 7 mps 751 mmHg 88%
    01:00 +6°C° 0.1 mm 7 mps 752 mmHg 88%
    02:00 +7°C° 0.1 mm 6 mps 752 mmHg 89%
    03:00 +7°C° 0.1 mm 6 mps 752 mmHg 89%
    04:00 +7°C° 0 mm 5 mps 752 mmHg 89%
    05:00 +7°C° 0 mm 5 mps 753 mmHg 88%
    06:00 +7°C° 0 mm 5 mps 753 mmHg 88%
    07:00 +6°C° 0 mm 5 mps 754 mmHg 88%
    08:00 +6°C° 0 mm 5 mps 754 mmHg 89%
    09:00 +6°C° 0 mm 5 mps 755 mmHg 89%
    10:00 +6°C° 0 mm 5 mps 755 mmHg 87%
    11:00 +7°C° 0 mm 5 mps 756 mmHg 85%
    12:00 +7°C° 0 mm 5 mps 756 mmHg 82%
    13:00 +7°C° 0 mm 5 mps 757 mmHg 83%
    14:00 +7°C° 0 mm 4 mps 757 mmHg 84%
    15:00 +7°C° 0 mm 4 mps 757 mmHg 85%
    16:00 +6°C° 0 mm 4 mps 758 mmHg 87%
    17:00 +6°C° 0 mm 4 mps 758 mmHg 89%
    18:00 +6°C° 0 mm 4 mps 758 mmHg 91%
    19:00 +6°C° 0 mm 4 mps 758 mmHg 90%
    20:00 +6°C° 0 mm 4 mps 758 mmHg 90%
    21:00 +6°C° 0 mm 5 mps 758 mmHg 90%
    22:00 +7°C° 0.3 mm 5 mps 758 mmHg 90%
    23:00 +7°C° 0.3 mm 6 mps 758 mmHg 89%
    Show more